FW5810 Weather Reports


time (UTC)temp
C
wind
direction
speed
KPH
gust
KPH
rain 1hr
cm
rain 24hr
cm
rain mn
cm
humidity
%
barometer
mb
20260902110755 22 227 0.0 0.0 0.00 0.00 0.00 98 1016.4
20260902110251 22 227 0.0 0.0 0.00 0.00 0.00 98 1016.7
20260902105751 22 227 0.0 0.0 0.00 0.00 0.00 98 1016.6
20260902105246 22 227 0.0 0.0 0.00 0.00 0.00 98 1016.6
20260902104742 22 227 0.0 1.6 0.00 0.00 0.00 98 1016.5
20260902104237 22 226 1.6 0.0 0.00 0.00 0.00 98 1016.3
20260902103736 22 225 0.0 1.6 0.00 0.00 0.00 98 1016.3
20260902103231 22 225 1.6 1.6 0.00 0.00 0.00 98 1016.4
20260902102727 22 221 0.0 1.6 0.00 0.00 0.00 98 1016.3
20260902102224 22 219 0.0 1.6 0.00 0.00 0.00 98 1016.4
20260902101719 22 219 1.6 1.6 0.00 0.00 0.00 98 1016.3
20260902101214 22 218 0.0 4.8 0.00 0.00 0.00 98 1016.4
20260902100713 22 221 1.6 1.6 0.00 0.00 0.00 98 1016.2
20260902100209 22 228 1.6 1.6 0.00 0.00 0.00 98 1016.4
20260902095708 22 240 1.6 6.4 0.00 0.00 0.00 98 1016.4
20260902095202 22 239 1.6 4.8 0.00 0.00 0.00 98 1016.4
20260902094657 22 198 1.6 6.4 0.00 0.00 0.00 99 1016.5
20260902094154 22 246 1.6 1.6 0.00 0.00 0.00 98 1016.5
20260902093653 22 225 0.0 1.6 0.00 0.00 0.00 98 1016.4
20260902093148 22 233 0.0 4.8 0.00 0.00 0.00 99 1016.6
20260902092643 22 245 0.0 4.8 0.00 0.00 0.00 98 1016.6
20260902092142 22 218 0.0 1.6 0.00 0.00 0.00 98 1016.6
20260902091637 22 237 1.6 1.6 0.00 0.00 0.00 99 1016.9
20260902091134 21 237 0.0 1.6 0.00 0.00 0.00 98 1017.0
20260902090629 21 237 1.6 1.6 0.00 0.00 0.00 99 1016.9
20260902090128 21 155 0.0 0.0 0.00 0.00 0.00 98 1016.7
20260902085624 21 155 0.0 0.0 0.00 0.00 0.00 98 1016.7
20260902085118 21 155 0.0 0.0 0.00 0.00 0.00 98 1016.6
20260902084615 21 155 0.0 0.0 0.00 0.00 0.00 98 1016.6
20260902084111 21 155 0.0 0.0 0.00 0.00 0.00 98 1016.7
20260902083605 21 155 0.0 0.0 0.00 0.00 0.00 98 1016.7
20260902083105 21 155 0.0 1.6 0.00 0.00 0.00 98 1016.6
20260902082601 21 155 0.0 0.0 0.00 0.00 0.00 98 1016.5
20260902082057 21 155 0.0 0.0 0.00 0.00 0.00 98 1016.6
20260902081554 21 155 0.0 0.0 0.00 0.00 0.00 98 1016.7
20260902081053 21 155 0.0 0.0 0.00 0.00 0.00 98 1016.6
20260902080548 21 155 0.0 0.0 0.00 0.00 0.00 98 1016.4
20260902080045 21 155 0.0 0.0 0.00 0.00 0.00 98 1016.5
20260902075544 21 155 0.0 0.0 0.00 0.00 0.00 98 1016.5
20260902075040 21 155 0.0 0.0 0.00 0.00 0.00 98 1016.6
20260902074536 21 155 0.0 0.0 0.00 0.00 0.00 98 1016.6
20260902074031 21 155 0.0 0.0 0.00 0.00 0.00 98 1016.6
20260902073526 21 155 0.0 0.0 0.00 0.00 0.00 98 1016.5
20260902073023 21 155 0.0 0.0 0.00 0.00 0.00 98 1016.7
20260902072518 22 155 0.0 0.0 0.00 0.00 0.00 98 1016.6
20260902072015 22 155 0.0 0.0 0.00 0.00 0.00 98 1016.5
20260902071514 21 155 0.0 0.0 0.00 0.00 0.00 97 1016.7
20260902071011 22 155 1.6 1.6 0.00 0.00 0.00 97 1016.6
20260902070506 22 155 0.0 0.0 0.00 0.00 0.00 97 1017.0
20260902070007 22 155 0.0 0.0 0.00 0.00 0.00 97 1016.9
20260902065500 22 157 0.0 0.0 0.00 0.00 0.00 97 1017.0
20260902064955 22 157 0.0 0.0 0.00 0.00 0.00 97 1016.9
20260902064450 21 241 0.0 0.0 0.00 0.00 0.00 97 1016.9
20260902063946 21 241 0.0 0.0 0.00 0.00 0.00 97 1017.0
20260902063445 22 241 0.0 1.6 0.00 0.00 0.00 97 1017.1
20260902062941 22 241 0.0 0.0 0.00 0.00 0.00 97 1016.9
20260902062440 22 241 0.0 0.0 0.00 0.00 0.00 97 1017.1
20260902061935 21 241 0.0 0.0 0.00 0.00 0.00 97 1017.0
20260902061430 22 241 0.0 0.0 0.00 0.00 0.00 97 1017.0
20260902060926 22 241 0.0 1.6 0.00 0.00 0.00 97 1017.1
20260902060422 22 241 0.0 0.0 0.00 0.00 0.00 97 1016.9
20260902055918 22 241 0.0 1.6 0.00 0.00 0.00 97 1017.0
20260902055414 22 241 0.0 0.0 0.00 0.00 0.00 97 1017.1
20260902054909 22 241 0.0 0.0 0.00 0.00 0.00 97 1016.9
20260902054404 22 241 0.0 0.0 0.00 0.00 0.00 97 1017.1
20260902053859 22 241 0.0 0.0 0.00 0.00 0.00 97 1017.0
20260902053354 22 241 0.0 1.6 0.00 0.00 0.00 96 1017.1
20260902052853 22 241 0.0 0.0 0.00 0.00 0.00 96 1016.9
20260902052349 22 241 0.0 0.0 0.00 0.00 0.00 96 1016.5
20260902051843 22 241 0.0 0.0 0.00 0.00 0.00 96 1016.7
20260902051337 22 241 0.0 0.0 0.00 0.00 0.00 96 1016.7
20260902050832 22 241 0.0 1.6 0.00 0.00 0.00 96 1016.6
20260902050331 22 241 0.0 0.0 0.00 0.00 0.00 96 1016.5
20260902045826 22 241 0.0 0.0 0.00 0.00 0.00 95 1016.5
20260902045322 22 241 0.0 0.0 0.00 0.00 0.00 95 1016.5
20260902044819 22 241 0.0 0.0 0.00 0.00 0.00 95 1016.3
20260902044314 22 241 0.0 0.0 0.00 0.00 0.00 95 1016.6
20260902043814 22 241 0.0 0.0 0.00 0.00 0.00 95 1016.4
20260902043309 22 241 0.0 0.0 0.00 0.00 0.00 94 1016.6
20260902042809 22 241 0.0 0.0 0.00 0.00 0.00 94 1016.4
20260902042308 22 241 0.0 1.6 0.00 0.00 0.00 94 1016.6
20260902041759 22 241 1.6 4.8 0.00 0.00 0.00 93 1016.5
20260902041259 23 242 1.6 1.6 0.00 0.00 0.00 93 1016.5
20260902040758 23 241 0.0 1.6 0.00 0.00 0.00 92 1016.6
20260902040254 23 241 0.0 0.0 0.00 0.00 0.00 92 1016.4
20260902035752 23 242 1.6 1.6 0.00 0.00 0.00 92 1016.5
20260902035248 23 228 1.6 4.8 0.00 0.00 0.00 93 1016.5
20260902034746 23 270 0.0 1.6 0.00 0.00 0.00 93 1016.5
20260902034242 23 271 1.6 1.6 0.00 0.00 0.00 92 1016.5
20260902033739 23 271 1.6 1.6 0.00 0.00 0.00 92 1016.3
20260902033235 23 271 0.0 0.0 0.00 0.00 0.00 92 1016.4
20260902032733 23 271 0.0 1.6 0.00 0.00 0.00 90 1016.2
20260902032229 23 271 1.6 1.6 0.00 0.00 0.00 89 1016.4
20260902031723 23 270 3.2 6.4 0.00 0.00 0.00 90 1016.4
20260902031218 23 264 1.6 4.8 0.00 0.00 0.00 90 1016.5
20260902030714 23 243 0.0 1.6 0.00 0.00 0.00 89 1016.4
20260902030214 24 251 0.0 1.6 0.00 0.00 0.00 89 1016.6
20260902025713 23 216 1.6 4.8 0.00 0.00 0.00 90 1016.3
20260902025208 23 258 4.8 4.8 0.00 0.00 0.00 91 1016.3
20260902024703 23 256 3.2 1.6 0.00 0.00 0.00 92 1016.3
20260902024158 23 256 1.6 1.6 0.00 0.00 0.00 93 1016.2
20260902023654 23 256 1.6 1.6 0.00 0.00 0.00 93 1016.2
20260902023149 23 255 1.6 1.6 0.00 0.00 0.00 93 1016.3
20260902022648 23 256 0.0 0.0 0.00 0.00 0.00 93 1016.2
20260902022144 23 256 0.0 0.0 0.00 0.00 0.00 92 1016.2
20260902021640 23 256 1.6 1.6 0.00 0.00 0.00 92 1016.3
20260902021134 23 256 0.0 0.0 0.00 0.00 0.00 91 1016.3
20260902020631 23 256 0.0 0.0 0.00 0.00 0.00 90 1016.1
20260902020126 23 256 0.0 0.0 0.00 0.00 0.00 89 1015.9
20260902015622 23 256 0.0 0.0 0.00 0.00 0.00 89 1016.2
20260902015118 23 256 0.0 0.0 0.00 0.00 0.00 89 1016.1
20260902014613 23 256 0.0 0.0 0.00 0.00 0.00 88 1016.1
20260902014109 23 256 0.0 0.0 0.00 0.00 0.00 87 1016.1
20260902013608 24 256 0.0 0.0 0.00 0.00 0.00 87 1016.1
20260902013104 24 256 0.0 0.0 0.00 0.00 0.00 86 1016.0
20260902012559 24 256 0.0 0.0 0.00 0.00 0.00 86 1016.1
20260902012054 24 256 0.0 0.0 0.00 0.00 0.00 86 1016.0
20260902011550 24 256 0.0 0.0 0.00 0.00 0.00 86 1015.9
20260902011049 25 256 0.0 0.0 0.00 0.00 0.00 85 1015.9
20260902010549 25 256 0.0 1.6 0.00 0.00 0.00 85 1015.8
20260902010045 25 256 0.0 0.0 0.00 0.00 0.00 84 1015.8
20260902005542 25 256 1.6 1.6 0.00 0.00 0.00 84 1015.7
20260902005039 25 302 0.0 1.6 0.00 0.00 0.00 83 1015.4
20260902004538 25 246 0.0 0.0 0.00 0.00 0.00 82 1015.5
20260902004033 25 246 0.0 4.8 0.00 0.00 0.00 81 1015.5
20260902003529 25 211 1.6 1.6 0.00 0.00 0.00 80 1015.5
20260902003024 26 140 0.0 0.0 0.00 0.00 0.00 80 1015.4
20260902002520 26 218 3.2 1.6 0.00 0.00 0.00 79 1015.5
20260902002015 26 214 0.0 0.0 0.00 0.00 0.00 79 1015.5
20260902001509 26 214 0.0 0.0 0.00 0.00 0.00 78 1015.4
20260902001004 26 209 0.0 0.0 0.00 0.00 0.00 77 1015.4
20260902000459 26 209 0.0 0.0 0.00 0.00 0.00 76 1015.5
20260901235954 26 210 1.6 4.8 0.00 0.00 0.00 75 1015.4
20260901235448 27 262 1.6 1.6 0.00 0.00 0.00 75 1015.5
20260901234944 27 262 0.0 1.6 0.00 0.00 0.00 74 1015.6
20260901234438 27 315 1.6 4.8 0.00 0.00 0.00 74 1015.7
20260901233933 27 282 3.2 6.4 0.00 0.00 0.00 74 1015.7
20260901233428 27 129 0.0 1.6 0.00 0.00 0.00 73 1015.8
20260901232925 27 273 0.0 1.6 0.00 0.00 0.00 73 1015.7
20260901232425 27 283 3.2 4.8 0.00 0.00 0.00 72 1015.9
20260901231920 27 281 1.6 8.0 0.00 0.00 0.00 72 1015.8
20260901231416 27 275 4.8 6.4 0.00 0.00 0.00 71 1015.9
20260901230912 27 274 6.4 11.3 0.00 0.00 0.00 72 1016.0
20260901230412 27 266 4.8 11.3 0.00 0.00 0.00 72 1016.1
20260901225907 27 249 0.0 6.4 0.00 0.00 0.00 72 1016.1
20260901225406 27 285 4.8 12.9 0.00 0.00 0.00 71 1016.1
20260901224901 28 284 9.7 16.1 0.00 0.00 0.00 70 1016.0
20260901224358 28 231 4.8 11.3 0.00 0.00 0.00 70 1016.2
20260901223854 28 262 3.2 6.4 0.00 0.00 0.00 69 1016.2
20260901223349 29 273 8.0 11.3 0.00 0.00 0.00 67 1016.2
20260901222845 30 128 4.8 16.1 0.00 0.00 0.00 66 1016.3
20260901222341 30 345 9.7 17.7 0.00 0.00 0.00 64 1016.2
20260901221837 30 265 8.0 16.1 0.00 0.00 0.00 65 1016.1
20260901221332 30 217 8.0 16.1 0.00 0.00 0.00 66 1016.1
20260901220832 30 107 3.2 6.4 0.00 0.00 0.00 67 1016.2
20260901220331 30 208 6.4 11.3 0.00 0.00 0.00 67 1016.1
20260901215830 30 352 4.8 12.9 0.00 0.00 0.00 68 1016.2
20260901215329 30 198 1.6 12.9 0.00 0.00 0.00 68 1016.1
20260901214828 29 282 4.8 8.0 0.00 0.00 0.00 69 1016.1
20260901214327 30 238 12.9 17.7 0.00 0.00 0.00 66 1016.1
20260901213822 30 208 6.4 19.3 0.00 0.00 0.00 67 1016.0
20260901213322 30 164 6.4 11.3 0.00 0.00 0.00 65 1016.0
20260901212816 30 218 4.8 11.3 0.00 0.00 0.00 66 1016.1
20260901212312 30 264 6.4 19.3 0.00 0.00 0.00 67 1016.2
20260901211808 30 249 6.4 17.7 0.00 0.00 0.00 66 1016.2
20260901211304 30 242 11.3 16.1 0.00 0.00 0.00 65 1016.3
20260901210759 30 303 3.2 4.8 0.00 0.00 0.00 67 1016.2
20260901210254 30 208 4.8 11.3 0.00 0.00 0.00 65 1016.1
20260901205751 31 19 3.2 4.8 0.00 0.00 0.00 65 1016.2
20260901205250 31 224 9.7 12.9 0.00 0.00 0.00 64 1016.2
20260901204746 30 235 8.0 16.1 0.00 0.00 0.00 64 1016.1
20260901204242 30 188 4.8 11.3 0.00 0.00 0.00 66 1016.3
20260901203737 30 145 4.8 6.4 0.00 0.00 0.00 67 1016.3
20260901203236 30 226 1.6 8.0 0.00 0.00 0.00 67 1016.2
20260901202736 30 284 3.2 12.9 0.00 0.00 0.00 66 1016.4
20260901202232 30 317 4.8 12.9 0.00 0.00 0.00 66 1016.3
20260901201726 29 253 4.8 12.9 0.00 0.00 0.00 67 1016.4
20260901201221 30 202 6.4 16.1 0.00 0.00 0.00 65 1016.2
20260901200720 30 128 8.0 12.9 0.00 0.00 0.00 62 1016.0
20260901200216 31 257 11.3 16.1 0.00 0.00 0.00 61 1015.9
20260901195714 31 251 11.3 16.1 0.00 0.00 0.00 61 1016.0
20260901195208 31 287 4.8 12.9 0.00 0.00 0.00 59 1015.9
20260901194703 31 240 4.8 8.0 0.00 0.00 0.00 60 1015.7
20260901194153 32 215 6.4 8.0 0.00 0.00 0.00 59 1015.8
20260901193648 31 268 1.6 11.3 0.00 0.00 0.00 61 1015.9
20260901193142 31 249 4.8 16.1 0.00 0.00 0.00 58 1015.7
20260901192637 30 226 4.8 11.3 0.00 0.00 0.00 61 1015.8
20260901192133 31 194 8.0 12.9 0.00 0.00 0.00 58 1015.8
20260901191628 31 142 8.0 11.3 0.00 0.00 0.00 59 1015.9
20260901191125 31 218 4.8 11.3 0.00 0.00 0.00 63 1016.0
20260901190620 31 160 4.8 8.0 0.00 0.00 0.00 61 1016.0
20260901190119 31 199 6.4 12.9 0.00 0.00 0.00 62 1016.0
20260901185618 31 261 8.0 12.9 0.00 0.00 0.00 62 1016.2
20260901185116 30 220 4.8 8.0 0.00 0.00 0.00 64 1016.0
20260901184612 30 245 6.4 17.7 0.00 0.00 0.00 63 1016.1
20260901184107 30 223 9.7 12.9 0.00 0.00 0.00 64 1016.0
20260901183602 30 164 3.2 11.3 0.00 0.00 0.00 66 1016.1
20260901183057 30 68 1.6 22.5 0.00 0.00 0.00 68 1016.2
20260901182554 30 238 8.0 17.7 0.00 0.00 0.00 68 1016.4
20260901182054 30 255 6.4 11.3 0.00 0.00 0.00 67 1016.1
20260901181553 30 145 8.0 12.9 0.00 0.00 0.00 65 1015.9
20260901181052 30 256 11.3 16.1 0.00 0.00 0.00 63 1016.2
20260901180551 30 131 6.4 12.9 0.00 0.00 0.00 64 1016.2
20260901180046 30 286 6.4 12.9 0.00 0.00 0.00 65 1016.3
20260901175540 31 222 3.2 22.5 0.00 0.00 0.00 63 1016.0
20260901175034 30 313 6.4 6.4 0.00 0.00 0.00 65 1016.1
20260901174530 30 189 6.4 8.0 0.00 0.00 0.00 66 1016.1
20260901174027 30 216 3.2 8.0 0.00 0.00 0.00 65 1016.1
20260901173526 30 221 12.9 19.3 0.00 0.00 0.00 64 1016.6
20260901173022 30 274 11.3 17.7 0.00 0.00 0.00 64 1016.5
20260901172518 31 0 17.7 25.7 0.00 0.00 0.00 62 1016.6
20260901172015 31 157 9.7 16.1 0.00 0.00 0.00 63 1016.4
20260901171515 31 183 6.4 22.5 0.00 0.00 0.00 61 1016.3
20260901171014 31 246 6.4 12.9 0.00 0.00 0.00 63 1016.5
20260901170508 31 219 11.3 17.7 0.00 0.00 0.00 60 1016.6
20260901170003 31 258 12.9 16.1 0.00 0.00 0.00 60 1016.7
20260901165457 31 237 6.4 12.9 0.00 0.00 0.00 58 1016.6
20260901164953 31 241 6.4 12.9 0.00 0.00 0.00 62 1016.5
20260901164448 31 240 8.0 8.0 0.00 0.00 0.00 61 1016.6
20260901163943 31 4 3.2 16.1 0.00 0.00 0.00 60 1016.7
20260901163438 31 103 8.0 11.3 0.00 0.00 0.00 62 1016.5
20260901162937 31 266 11.3 17.7 0.00 0.00 0.00 60 1016.7
20260901162432 31 230 3.2 16.1 0.00 0.00 0.00 62 1016.7
20260901161932 31 330 4.8 17.7 0.00 0.00 0.00 60 1016.6
20260901161431 30 237 4.8 12.9 0.00 0.00 0.00 63 1016.6
20260901160926 30 225 11.3 22.5 0.00 0.00 0.00 63 1016.7
20260901160422 31 227 8.0 12.9 0.00 0.00 0.00 62 1016.6
20260901155921 31 86 1.6 8.0 0.00 0.00 0.00 62 1016.9
20260901155416 31 248 4.8 8.0 0.00 0.00 0.00 61 1016.5
20260901154913 30 21 3.2 4.8 0.00 0.00 0.00 63 1016.5
20260901154412 30 301 6.4 6.4 0.00 0.00 0.00 65 1016.5
20260901153906 30 78 6.4 8.0 0.00 0.00 0.00 64 1016.5
20260901153406 30 277 16.1 19.3 0.00 0.00 0.00 64 1016.6
20260901152900 30 245 8.0 19.3 0.00 0.00 0.00 63 1016.5
20260901152355 30 50 1.6 6.4 0.00 0.00 0.00 65 1016.6
20260901151849 29 307 3.2 12.9 0.00 0.00 0.00 66 1016.6
20260901151344 30 239 4.8 11.3 0.00 0.00 0.00 65 1016.7
20260901150843 29 314 9.7 12.9 0.00 0.00 0.00 64 1016.9
20260901150341 29 98 4.8 12.9 0.00 0.00 0.00 65 1016.6
20260901145838 29 341 4.8 12.9 0.00 0.00 0.00 65 1016.6
20260901145333 29 16 3.2 8.0 0.00 0.00 0.00 67 1016.6
20260901144828 28 234 8.0 16.1 0.00 0.00 0.00 66 1016.6
20260901144324 29 332 1.6 16.1 0.00 0.00 0.00 66 1016.7
20260901143820 28 107 3.2 16.1 0.00 0.00 0.00 67 1016.5
20260901143316 28 204 4.8 19.3 0.00 0.00 0.00 68 1016.4
20260901142812 28 234 8.0 11.3 0.00 0.00 0.00 67 1016.6
20260901142310 28 352 4.8 11.3 0.00 0.00 0.00 68 1016.4
20260901141806 28 27 1.6 25.7 0.00 0.00 0.00 70 1016.5
20260901141301 27 236 4.8 12.9 0.00 0.00 0.00 71 1016.4
20260901140800 27 242 6.4 16.1 0.00 0.00 0.00 70 1016.4
20260901140258 27 256 6.4 11.3 0.00 0.00 0.00 70 1016.2
20260901135754 27 211 4.8 8.0 0.00 0.00 0.00 71 1016.1
20260901135253 27 354 4.8 19.3 0.00 0.00 0.00 71 1016.4
20260901134750 27 201 4.8 4.8 0.00 0.00 0.00 72 1016.4
20260901134249 27 275 6.4 16.1 0.00 0.00 0.00 73 1016.5
20260901133748 27 276 11.3 16.1 0.00 0.00 0.00 72 1016.5
20260901133243 27 248 4.8 11.3 0.00 0.00 0.00 72 1016.5
20260901132741 27 43 4.8 8.0 0.00 0.00 0.00 72 1016.4
20260901132236 27 316 3.2 4.8 0.00 0.00 0.00 74
20260901131731 26 252 4.8 4.8 0.00 0.00 0.00 76
20260901131230 26 245 4.8 8.0 0.00 0.00 0.00 78
20260901130726 25 247 3.2 4.8 0.00 0.00 0.00 80
20260901130225 25 227 6.4 8.0 0.00 0.00 0.00 80
20260901125723 25 262 1.6 6.4 0.00 0.00 0.00 81
20260901125218 25 240 4.8 11.3 0.00 0.00 0.00 83
20260901124712 24 298 3.2 4.8 0.00 0.00 0.00 84
20260901124207 24 247 0.0 4.8 0.00 0.00 0.00 84
20260901123707 24 297 3.2 6.4 0.00 0.00 0.00 84
20260901123202 24 236 1.6 1.6 0.00 0.00 0.00 85
20260901122700 24 208 1.6 4.8 0.00 0.00 0.00 85
20260901122155 23 146 1.6 4.8 0.00 0.00 0.00 85
20260901121649 23 191 1.6 1.6 0.00 0.00 0.00 86
20260901121145 23 295 1.6 4.8 0.00 0.00 0.00 86
20260901120644 23 251 1.6 4.8 0.00 0.00 0.00 86
20260901120140 23 249 0.0 4.8 0.00 0.00 0.00 86
20260901115635 23 221 0.0 4.8 0.00 0.00 0.00 86
20260901115131 23 257 4.8 6.4 0.00 0.00 0.00 86
20260901114627 23 126 0.0 1.6 0.00 0.00 0.00 87
20260901114126 23 208 1.6 6.4 0.00 0.00 0.00 87
20260901113620 23 159 3.2 4.8 0.00 0.00 0.00 87
20260901113115 23 144 1.6 4.8 0.00 0.00 0.00 87
20260901112615 23 236 4.8 6.4 0.00 0.00 0.00 87
20260901112109 23 232 0.0 0.0 0.00 0.00 0.00 87
20260901111608 23 83 1.6 4.8 0.00 0.00 0.00 87
20260901111107 23 212 1.6 6.4 0.00 0.00 0.00 87